Location: Macksville High School
(37.9611°N, 99.9654°W)
Time: 19:18:41
(UTC+00:00)

GEOS 3 Rocket - Pass Details

Date: 17 January 2021
Orbit: 771 x 848 km, 115.0° (Epoch: 26 February)

Event Time Altitude Azimuth Distance (km) Brightness Sun altitude
Rises 12:01:19 0° 148° (SSE) 3,349 7.4 -21.9°
Reaches altitude 10° 12:03:36 10° 149° (SSE) 2,429 6.6 -21.4°
Maximum altitude 12:08:54 79° 236° (WSW) 858 3.6 -20.4°
Enters shadow 12:11:47 29° 320° (NW) 1,510 4.6 -19.8°
